User: anonymous   Login
Location: Fort Wayne
(41.1310°N, 85.1290°W)
Time: 09:36:06
(UTC-04:00)
Language:

OAO 2 Rocket - Orbit

View from above orbital plane
View from above orbital plane
View from above satellite
View from above satellite

Ground track
Ground track

The orbit data is extracted from the following two-line orbital elements,

1 03598U 68110B   16183.17143055  .00000053  00000-0  16617-4 0  9999
2 03598  34.9927 159.2299 0049954 260.5871  98.9172 14.54228896515341
Epoch (UTC): 01 July 2016 04:06:51
Eccentricity: 0.0049954
inclination: 34.9927°
perigee height: 676 km
apogee height: 747 km
right ascension of ascending node: 159.2299°
argument of perigee: 260.5871°
revolutions per day: 14.54228896
mean anomaly at epoch: 98.9172°
orbit number at epoch: 51534

The dashed part of the orbit path shows where the satellite is in the earth's shadow,  

DLR